Weather History for Menominee, MI

Change the Weather History Date:

Saturday, March 30, 2013

  Actual Average Record
Temperature  
Mean Temperature 36 °F -  
Max Temperature 41 °F 47 °F 75 °F (1963)
Min Temperature 30 °F 28 °F 7 °F (1969)
Degree Days  
Heating Degree Days 30    
Moisture  
Dew Point 27 °F    
Average Humidity 73    
Maximum Humidity 100    
Minimum Humidity 45    
Precipitation  
Precipitation 0.17 in - - ()
Sea Level Pressure  
Sea Level Pressure 29.98 in    
Wind  
Wind Speed 7 mph (SW)    
Max Wind Speed 13 mph    
Max Gust Speed 16 mph    
Visibility 8 miles    
Events      
Averages and records for this station are not official NWS values.
T = Trace of Precipitation, MM = Missing Value Source: NWS Daily Summary

Daily Weather History Graph

Daily Weather History Graph

Search for Another Location

Airport:

Trip Planner

Search our weather history database for the weather conditions in past years. The results will help you decide how hot, cold, wet, or windy it might be!

Date:

Astronomy

Mar. 30, 2013 Rise Set
Actual Time 6:34 AM CDT 7:16 PM CDT
Civil Twilight 6:04 AM CDT 7:45 PM CDT
Nautical Twilight 5:29 AM CDT 8:21 PM CDT
Astronomical Twilight 4:52 AM CDT 8:58 PM CDT
Moon 11:33 PM CDT (3/30) 8:19 AM CDT (3/30)
Length of Visible Light 13h 41m
Length of Day
12h 41m
Waning Gibbous, 86% of the Moon is Illuminated
Mar 30
Waning Gibbous
Apr 2
Last Quarter
Apr 10
New
Apr 18
First Quarter
Apr 25
Full

Hourly Weather History & Observations

Time (CDT) Temp. Windchill Dew Point Humidity Pressure Visibility Wind Dir Wind Speed Gust Speed Precip Events Conditions
12:15 AM 33.8 °F 28.6 °F 21.2 °F 60% 30.19 in 10.0 mi SW 5.8 mph - N/A   Clear
12:35 AM 33.8 °F 27.7 °F 21.2 °F 60% 30.19 in 10.0 mi WSW 6.9 mph - N/A   Clear
12:55 AM 33.8 °F 28.6 °F 21.2 °F 60% 30.19 in 10.0 mi SW 5.8 mph - N/A   Clear
1:15 AM 32.0 °F 26.4 °F 19.4 °F 60% 30.19 in 10.0 mi SW 5.8 mph - N/A   Clear
1:35 AM 32.0 °F 26.4 °F 21.2 °F 64% 30.19 in 10.0 mi SW 5.8 mph - N/A   Clear
1:55 AM 32.0 °F 26.4 °F 21.2 °F 64% 30.18 in 10.0 mi WSW 5.8 mph - N/A   Clear
2:15 AM 32.0 °F 26.4 °F 21.2 °F 64% 30.18 in 10.0 mi WSW 5.8 mph - N/A   Clear
2:35 AM 32.0 °F 25.6 °F 21.2 °F 64% 30.18 in 10.0 mi SW 6.9 mph - N/A   Clear
2:55 AM 30.2 °F 24.3 °F 21.2 °F 69% 30.17 in 10.0 mi SW 5.8 mph - N/A   Clear
3:15 AM 30.2 °F 25.4 °F 21.2 °F 69% 30.16 in 10.0 mi SW 4.6 mph - N/A   Clear
3:35 AM 30.2 °F 25.4 °F 19.4 °F 64% 30.15 in 10.0 mi SSW 4.6 mph - N/A   Clear
3:55 AM 30.2 °F 25.4 °F 21.2 °F 69% 30.14 in 10.0 mi SW 4.6 mph - N/A   Clear
4:15 AM 30.2 °F 24.3 °F 21.2 °F 69% 30.14 in 10.0 mi WSW 5.8 mph - N/A   Clear
4:35 AM 30.2 °F 24.3 °F 19.4 °F 64% 30.13 in 10.0 mi SW 5.8 mph - N/A   Clear
4:55 AM 30.2 °F 24.3 °F 21.2 °F 69% 30.12 in 10.0 mi SW 5.8 mph - N/A   Clear
5:15 AM 30.2 °F 23.4 °F 19.4 °F 64% 30.11 in 10.0 mi SSW 6.9 mph - N/A   Clear
5:35 AM 30.2 °F 23.4 °F 19.4 °F 64% 30.11 in 10.0 mi SW 6.9 mph - N/A   Clear
5:55 AM 30.2 °F 23.4 °F 21.2 °F 69% 30.11 in 10.0 mi SSW 6.9 mph - N/A   Scattered Clouds
6:15 AM 32.0 °F 25.6 °F 21.2 °F 64% 30.11 in 10.0 mi SW 6.9 mph - N/A   Overcast
6:35 AM 32.0 °F 25.6 °F 21.2 °F 64% 30.10 in 10.0 mi SW 6.9 mph - N/A   Overcast
6:55 AM 32.0 °F 26.4 °F 21.2 °F 64% 30.10 in 10.0 mi SW 5.8 mph - N/A   Overcast
7:15 AM 32.0 °F 26.4 °F 21.2 °F 64% 30.10 in 10.0 mi SW 5.8 mph - N/A   Overcast
7:55 AM 33.8 °F 27.0 °F 21.2 °F 60% 30.09 in 10.0 mi SW 8.1 mph - N/A   Overcast
8:15 AM 33.8 °F 27.7 °F 21.2 °F 60% 30.09 in 10.0 mi SSW 6.9 mph - N/A   Mostly Cloudy
8:35 AM 35.6 °F 30.7 °F 21.2 °F 56% 30.08 in 10.0 mi SW 5.8 mph - N/A   Overcast
8:55 AM 35.6 °F 28.6 °F 23.0 °F 60% 30.07 in 10.0 mi SSW 9.2 mph - N/A   Overcast
9:15 AM 37.4 °F 30.3 °F 23.0 °F 56% 30.05 in 10.0 mi South 10.4 mph - N/A   Overcast
9:55 AM 37.4 °F 31.4 °F 23.0 °F 56% 30.02 in 10.0 mi South 8.1 mph - N/A   Overcast
10:15 AM 39.2 °F 33.0 °F 23.0 °F 52% 30.02 in 10.0 mi SSW 9.2 mph - N/A   Overcast
10:35 AM 39.2 °F 33.0 °F 21.2 °F 49% 30.01 in 10.0 mi SSW 9.2 mph - N/A   Overcast
10:55 AM 39.2 °F 32.5 °F 23.0 °F 52% 30.01 in 10.0 mi SSW 10.4 mph - N/A   Overcast
11:15 AM 39.2 °F 32.5 °F 24.8 °F 56% 30.00 in 10.0 mi SW 10.4 mph 16.1 mph N/A   Overcast
11:35 AM 39.2 °F 33.0 °F 24.8 °F 56% 30.01 in 10.0 mi SW 9.2 mph - N/A   Overcast
11:55 AM 39.2 °F 32.5 °F 24.8 °F 56% 30.00 in 10.0 mi SSW 10.4 mph - N/A   Overcast
12:35 PM 41.0 °F 33.9 °F 23.0 °F 49% 29.99 in 10.0 mi SSW 12.7 mph - N/A   Overcast
12:55 PM 41.0 °F 34.7 °F 23.0 °F 49% 29.98 in 10.0 mi SW 10.4 mph - N/A   Overcast
1:15 PM 41.0 °F 36.4 °F 21.2 °F 45% 29.97 in 10.0 mi SSW 6.9 mph - N/A   Overcast
1:35 PM 39.2 °F 31.6 °F 24.8 °F 56% 29.96 in 10.0 mi SSW 12.7 mph - N/A   Overcast
2:15 PM 39.2 °F 33.0 °F 26.6 °F 61% 29.94 in 10.0 mi SSW 9.2 mph - N/A   Overcast
2:35 PM 37.4 °F 30.8 °F 28.4 °F 70% 29.93 in 7.0 mi SSW 9.2 mph - N/A   Overcast
2:55 PM 37.4 °F 29.8 °F 30.2 °F 75% 29.92 in 7.0 mi South 11.5 mph - N/A   Overcast
3:15 PM 37.4 °F 29.3 °F 30.2 °F 75% 29.89 in 10.0 mi South 12.7 mph - N/A   Overcast
3:35 PM 39.2 °F 33.6 °F 32.0 °F 75% 29.89 in 9.0 mi South 8.1 mph 16.1 mph N/A   Overcast
3:55 PM 37.4 °F 30.8 °F 30.2 °F 75% 29.88 in 9.0 mi South 9.2 mph - 0.02 in   Overcast
4:15 PM 35.6 °F 28.0 °F 32.0 °F 87% 29.88 in 7.0 mi South 10.4 mph - 0.02 in   Overcast
4:35 PM 35.6 °F 29.2 °F 32.0 °F 87% 29.87 in 7.0 mi South 8.1 mph - 0.03 in   Overcast
4:55 PM 37.4 °F 32.1 °F 33.8 °F 87% 29.87 in 5.0 mi South 6.9 mph - 0.05 in   Overcast
5:15 PM 35.6 °F 28.6 °F 33.8 °F 93% 29.86 in 5.0 mi SSW 9.2 mph - 0.01 in   Overcast
5:35 PM 35.6 °F 28.0 °F 33.8 °F 93% 29.85 in 5.0 mi South 10.4 mph - 0.03 in   Overcast
5:55 PM 35.6 °F 32.8 °F 33.8 °F 93% 29.86 in 5.0 mi SSW 3.5 mph - 0.05 in   Overcast
6:15 PM 37.4 °F - 33.8 °F 87% 29.85 in 5.0 mi Calm Calm - 0.03 in   Overcast
6:35 PM 35.6 °F 31.7 °F 33.8 °F 93% 29.84 in 7.0 mi SSW 4.6 mph - 0.04 in   Overcast
6:55 PM 35.6 °F 29.9 °F 33.8 °F 93% 29.83 in 5.0 mi SSW 6.9 mph - 0.04 in   Overcast
7:15 PM 35.6 °F 29.2 °F 33.8 °F 93% 29.83 in 5.0 mi SSW 8.1 mph - N/A   Overcast
7:35 PM 35.6 °F 29.2 °F 33.8 °F 93% 29.81 in 4.0 mi SSW 8.1 mph - 0.01 in   Overcast
7:55 PM 35.6 °F 29.9 °F 35.6 °F 100% 29.81 in 5.0 mi SW 6.9 mph - 0.01 in   Overcast
8:15 PM 39.2 °F 35.0 °F 35.6 °F 87% 29.80 in 4.0 mi WSW 5.8 mph - N/A   Overcast
8:35 PM 37.4 °F 32.1 °F 35.6 °F 93% 29.79 in 2.5 mi SW 6.9 mph - N/A   Overcast
8:55 PM 35.6 °F - 35.6 °F 100% 29.80 in 1.8 mi Calm Calm - N/A   Overcast
9:15 PM 33.8 °F 30.8 °F 33.8 °F 100% 29.80 in 1.2 mi WNW 3.5 mph - N/A   Overcast
9:35 PM 37.4 °F 32.8 °F 35.6 °F 93% 29.79 in 1.2 mi WSW 5.8 mph - N/A   Overcast
9:55 PM 37.4 °F - 37.4 °F 100% 29.79 in 1.0 mi Calm Calm - N/A   Overcast
10:15 PM 35.6 °F - 35.6 °F 100% 29.79 in 0.8 mi Calm Calm - N/A   Overcast
10:35 PM 37.4 °F - 35.6 °F 93% 29.78 in 0.8 mi Calm Calm - N/A   Overcast
10:55 PM 35.6 °F - 33.8 °F 93% 29.77 in 0.8 mi Calm Calm - N/A   Overcast
11:15 PM 35.6 °F 32.8 °F 35.6 °F 100% 29.77 in 1.2 mi West 3.5 mph - N/A   Overcast
11:35 PM 35.6 °F 30.7 °F 35.6 °F 100% 29.76 in 1.2 mi West 5.8 mph - N/A   Overcast
11:55 PM 35.6 °F 31.7 °F 35.6 °F 100% 29.76 in 1.5 mi West 4.6 mph - N/A   Overcast